Previsão horária em Alojzow

Hoje, 20 Janeiro, Quarta-feira

Tempo Temperatura Precipitação Vento Pressão Humidade
00:00 -7°C° 0.3 mm 3 m/s 741 mmHg 95%
01:00 -6°C° 0.3 mm 3 m/s 741 mmHg 95%
02:00 -6°C° 0 mm 3 m/s 740 mmHg 95%
03:00 -6°C° 0.2 mm 3 m/s 740 mmHg 95%
04:00 -6°C° 0.2 mm 3 m/s 740 mmHg 96%
05:00 -6°C° 0.2 mm 3 m/s 740 mmHg 96%
06:00 -6°C° 0 mm 3 m/s 740 mmHg 95%
07:00 -7°C° 0 mm 4 m/s 740 mmHg 95%
08:00 -5°C° 0 mm 4 m/s 740 mmHg 94%
09:00 -5°C° 0.2 mm 4 m/s 740 mmHg 95%
10:00 -4°C° 0.2 mm 4 m/s 740 mmHg 95%
11:00 -4°C° 0.2 mm 4 m/s 740 mmHg 96%
12:00 -4°C° 0.2 mm 5 m/s 740 mmHg 96%
13:00 -4°C° 0.2 mm 5 m/s 740 mmHg 95%
14:00 -2°C° 0 mm 5 m/s 740 mmHg 95%
15:00 -2°C° 0.1 mm 5 m/s 740 mmHg 93%
16:00 -2°C° 0.1 mm 4 m/s 740 mmHg 92%
17:00 -1°C° 0.1 mm 4 m/s 740 mmHg 91%
18:00 -1°C° 0 mm 4 m/s 740 mmHg 90%
19:00 -2°C° 0 mm 4 m/s 740 mmHg 89%
20:00 -2°C° 0 mm 5 m/s 740 mmHg 88%
21:00 -2°C° 0 mm 5 m/s 740 mmHg 87%
22:00 -1°C° 0 mm 5 m/s 740 mmHg 87%
23:00 -1°C° 0 mm 5 m/s 740 mmHg 86%

Amanhã, 21 Janeiro, Quinta-feira

Tempo Temperatura Precipitação Vento Pressão Humidade
00:00 -1°C° 0 mm 5 m/s 740 mmHg 86%
01:00 -2°C° 0 mm 6 m/s 740 mmHg 86%
02:00 -1°C° 0 mm 6 m/s 740 mmHg 86%
03:00 -1°C° 0 mm 6 m/s 739 mmHg 86%
04:00 -1°C° 0 mm 6 m/s 739 mmHg 85%
05:00 -1°C° 0 mm 6 m/s 739 mmHg 84%
06:00 0°C° 0 mm 5 m/s 739 mmHg 85%
07:00 0°C° 0 mm 5 m/s 739 mmHg 85%
08:00 0°C° 0 mm 5 m/s 739 mmHg 85%
09:00 0°C° 0 mm 4 m/s 739 mmHg 88%
10:00 0°C° 0 mm 4 m/s 739 mmHg 91%
11:00 0°C° 0 mm 4 m/s 739 mmHg 94%
12:00 0°C° 0 mm 4 m/s 739 mmHg 96%
13:00 +1°C° 0 mm 4 m/s 739 mmHg 97%
14:00 +1°C° 0 mm 4 m/s 739 mmHg 98%
15:00 +1°C° 0 mm 4 m/s 738 mmHg 95%
16:00 0°C° 0 mm 4 m/s 738 mmHg 92%
17:00 0°C° 0 mm 4 m/s 738 mmHg 89%
18:00 0°C° 0 mm 4 m/s 738 mmHg 88%
19:00 0°C° 0 mm 4 m/s 738 mmHg 87%
20:00 0°C° 0 mm 4 m/s 738 mmHg 86%
21:00 0°C° 0 mm 4 m/s 737 mmHg 89%
22:00 0°C° 0 mm 4 m/s 737 mmHg 91%
23:00 0°C° 0 mm 4 m/s 737 mmHg 93%

Depois de amanhã, 22 Janeiro, Sexta-feira

Tempo Temperatura Precipitação Vento Pressão Humidade
00:00 0°C° 0 mm 4 m/s 737 mmHg 92%
01:00 0°C° 0 mm 4 m/s 737 mmHg 91%
02:00 0°C° 0 mm 4 m/s 737 mmHg 90%
03:00 0°C° 0 mm 4 m/s 736 mmHg 90%
04:00 0°C° 0 mm 4 m/s 736 mmHg 89%
05:00 0°C° 0 mm 4 m/s 736 mmHg 88%
06:00 0°C° 0 mm 4 m/s 736 mmHg 88%
07:00 0°C° 0 mm 4 m/s 736 mmHg 88%
08:00 +1°C° 0 mm 4 m/s 736 mmHg 88%
09:00 +1°C° 0 mm 5 m/s 736 mmHg 89%
10:00 +1°C° 0 mm 6 m/s 735 mmHg 91%
11:00 +2°C° 0 mm 6 m/s 735 mmHg 92%
12:00 +2°C° 0 mm 7 m/s 735 mmHg 91%
13:00 +2°C° 0 mm 7 m/s 734 mmHg 90%
14:00 +3°C° 0 mm 7 m/s 734 mmHg 89%
15:00 +2°C° 0 mm 7 m/s 734 mmHg 88%
16:00 +2°C° 0 mm 7 m/s 733 mmHg 87%
17:00 +2°C° 0 mm 6 m/s 733 mmHg 86%
18:00 +2°C° 0 mm 6 m/s 733 mmHg 86%
19:00 +2°C° 0 mm 6 m/s 733 mmHg 86%
20:00 +2°C° 0 mm 6 m/s 734 mmHg 87%
21:00 +1°C° 0 mm 5 m/s 734 mmHg 88%
22:00 +1°C° 0 mm 5 m/s 733 mmHg 89%
23:00 +1°C° 0 mm 4 m/s 733 mmHg 90%

23 Janeiro, Sábado

Tempo Temperatura Precipitação Vento Pressão Humidade
00:00 +1°C° 0 mm 4 m/s 733 mmHg 90%
01:00 +1°C° 0 mm 4 m/s 733 mmHg 90%
02:00 +1°C° 0 mm 5 m/s 733 mmHg 89%
03:00 +1°C° 0 mm 5 m/s 733 mmHg 90%
04:00 +1°C° 0 mm 5 m/s 733 mmHg 90%
05:00 +1°C° 0 mm 5 m/s 732 mmHg 90%
06:00 +1°C° 0.1 mm 5 m/s 732 mmHg 90%
07:00 +1°C° 0.1 mm 5 m/s 732 mmHg 90%
08:00 +2°C° 0.1 mm 5 m/s 732 mmHg 90%
09:00 +2°C° 0 mm 5 m/s 732 mmHg 89%
10:00 +3°C° 0 mm 5 m/s 732 mmHg 88%
11:00 +3°C° 0 mm 6 m/s 732 mmHg 87%
12:00 +4°C° 0 mm 6 m/s 732 mmHg 86%
13:00 +5°C° 0 mm 6 m/s 731 mmHg 85%
14:00 +5°C° 0 mm 6 m/s 731 mmHg 84%
15:00 +5°C° 0 mm 6 m/s 731 mmHg 85%
16:00 +4°C° 0 mm 6 m/s 730 mmHg 85%
17:00 +3°C° 0 mm 6 m/s 730 mmHg 86%
18:00 +3°C° 0 mm 5 m/s 730 mmHg 86%
19:00 +2°C° 0 mm 5 m/s 730 mmHg 86%
20:00 +3°C° 0 mm 4 m/s 730 mmHg 87%
21:00 +2°C° 0 mm 5 m/s 730 mmHg 87%
22:00 +2°C° 0 mm 5 m/s 729 mmHg 87%
23:00 +2°C° 0 mm 5 m/s 729 mmHg 87%

24 Janeiro, Domingo

Tempo Temperatura Precipitação Vento Pressão Humidade
00:00 +3°C° 0 mm 4 m/s 729 mmHg 88%
01:00 +3°C° 0 mm 4 m/s 729 mmHg 88%
02:00 +3°C° 0 mm 4 m/s 729 mmHg 89%
03:00 +3°C° 0 mm 4 m/s 729 mmHg 89%
04:00 +1°C° 0 mm 4 m/s 729 mmHg 90%
05:00 +2°C° 0 mm 3 m/s 729 mmHg 90%
06:00 +2°C° 0 mm 3 m/s 729 mmHg 91%
07:00 +2°C° 0 mm 2 m/s 729 mmHg 91%
08:00 +2°C° 0 mm 2 m/s 729 mmHg 92%
09:00 +3°C° 0 mm 2 m/s 729 mmHg 92%
10:00 +4°C° 0 mm 1 m/s 729 mmHg 92%
11:00 +4°C° 0 mm 1 m/s 729 mmHg 93%
12:00 +3°C° 0 mm 2 m/s 729 mmHg 92%
13:00 +3°C° 0 mm 2 m/s 729 mmHg 92%
14:00 +2°C° 0 mm 3 m/s 729 mmHg 92%
15:00 +1°C° 0 mm 3 m/s 729 mmHg 92%
16:00 +2°C° 0 mm 2 m/s 729 mmHg 92%
17:00 +1°C° 0 mm 2 m/s 729 mmHg 93%
18:00 +1°C° 0 mm 2 m/s 730 mmHg 93%
19:00 +1°C° 0 mm 2 m/s 730 mmHg 93%
20:00 +2°C° 0 mm 1 m/s 731 mmHg 93%
21:00 +1°C° 0 mm 1 m/s 731 mmHg 94%
22:00 +1°C° 0 mm 1 m/s 731 mmHg 95%
23:00 +1°C° 0 mm 1 m/s 731 mmHg 95%

25 Janeiro, Segunda-feira

Tempo Temperatura Precipitação Vento Pressão Humidade
00:00 +1°C° 0.4 mm 1 m/s 731 mmHg 96%
01:00 +1°C° 0.4 mm 1 m/s 732 mmHg 97%
02:00 -1°C° 0.4 mm 2 m/s 732 mmHg 98%
03:00 -1°C° 0.1 mm 2 m/s 732 mmHg 97%
04:00 +1°C° 0.1 mm 2 m/s 732 mmHg 97%
05:00 +2°C° 0.1 mm 1 m/s 732 mmHg 96%
06:00 +1°C° 0 mm 1 m/s 732 mmHg 97%
07:00 +1°C° 0 mm 1 m/s 732 mmHg 97%
08:00 +1°C° 0 mm 1 m/s 732 mmHg 97%
09:00 +2°C° 0 mm 1 m/s 732 mmHg 96%
10:00 +1°C° 0 mm 2 m/s 732 mmHg 95%
11:00 +1°C° 0 mm 2 m/s 731 mmHg 94%
12:00 +1°C° 0 mm 3 m/s 731 mmHg 93%
13:00 0°C° 0 mm 4 m/s 730 mmHg 92%
14:00 +1°C° 0 mm 5 m/s 729 mmHg 91%
15:00 0°C° 0.4 mm 5 m/s 729 mmHg 92%
16:00 -1°C° 0.4 mm 6 m/s 728 mmHg 94%
17:00 -1°C° 0.4 mm 6 m/s 728 mmHg 96%
18:00 -2°C° 2.2 mm 7 m/s 727 mmHg 97%
19:00 -2°C° 2.2 mm 7 m/s 727 mmHg 97%
20:00 -2°C° 2.2 mm 7 m/s 726 mmHg 98%
21:00 -2°C° 1.7 mm 7 m/s 725 mmHg 97%
22:00 -2°C° 1.7 mm 7 m/s 725 mmHg 97%
23:00 -2°C° 1.7 mm 8 m/s 724 mmHg 97%
Mostrar mais

Necessitamos do seu Consentimento

A Meteoprog e os seus Fornecedores de Serviços podem armazenar e aceder a dados pessoais como cookies, identificadores do dispositivo ou outras tecnologias semelhantes existentes no seu dispositivo e processar estes dados para personalizar conteúdos e anúncios, assim como funcionalidades nas redes sociais e análise de tráfego.

  • Armazenar e/ou aceder a informações no seu dispositivo

    Os cookies, identificadores do dispositivo ou outras informações podem ser armazenados ou acedidos no seu dispositivo, para os fins acima indicados.

  • Anúncios e conteúdos personalizados, medição de anúncios e conteúdos, dados sobre o público-alvo e desenvolvimento de produtos

    Os anúncios e os conteúdos podem ser personalizados com base num perfil. Podem ser adicionados dados adicionais para uma maior personalização dos anúncios e dos conteúdos. A eficácia dos anúncios e dos conteúdos pode ser medida. Podem ser obtidas informações sobre o público que visualizou os anúncios e os conteúdos. Estes dados podem ser usados para desenvolver ou melhorar sistemas, softwares ou a experiência do utilizador.

Ao clicar em "Eu concordo”, permitirá o uso de cookies, identificadores do dispositivo e web beacons mencionados ou outras tecnologias semelhantes. As configurações do navegador do seu dispositivo podem ser alteradas.

Para certos fins, podem ser invocados interesses legítimos ao invés de consentimento. Pode ler mais informação sobre este assunto na nossa Política de Privacidade e Cookies.